Time,TemperatureF,DewpointF,PressureIn,WindDirection,WindDirectionDegrees,WindSpeedMPH,WindSpeedGustMPH,Humidity,HourlyPrecipIn,Conditions,Clouds,dailyrainin,SolarRadiationWatts/m^2,SoftwareType,DateUTC
2013-01-31 00:16:00,51.9,51.9,29.24,SSW,206,7.0,7.0,100,0.08,,CLR,0.00,0.00,VWS V14.01,2013-01-31 05:16:00,
2013-01-31 00:21:00,51.8,51.8,29.23,South,185,2.0,7.0,100,0.08,,CLR,0.00,0.00,VWS V14.01,2013-01-31 05:21:00,
2013-01-31 00:26:00,51.5,51.5,29.23,SSW,202,2.0,7.0,100,0.06,,CLR,0.01,0.00,VWS V14.01,2013-01-31 05:26:00,
2013-01-31 00:31:00,51.3,51.3,29.23,WSW,253,5.0,8.0,100,0.07,,CLR,0.02,0.00,VWS V14.01,2013-01-31 05:31:00,
2013-01-31 00:36:00,51.3,51.3,29.20,West,275,4.0,6.0,100,0.05,,CLR,0.02,0.00,VWS V14.01,2013-01-31 05:36:00,
2013-01-31 00:41:00,51.2,51.2,29.20,SSW,210,1.0,6.0,100,0.05,,CLR,0.02,0.00,VWS V14.01,2013-01-31 05:41:00,
2013-01-31 00:46:00,51.0,51.0,29.20,WSW,243,2.0,4.0,100,0.04,,CLR,0.02,0.00,VWS V14.01,2013-01-31 05:46:00,
2013-01-31 00:52:00,51.0,51.0,29.20,West,260,1.0,4.0,100,0.04,,CLR,0.02,0.00,VWS V14.01,2013-01-31 05:52:00,
2013-01-31 00:57:00,51.0,51.0,29.20,WSW,237,3.0,3.0,100,0.03,,CLR,0.02,0.00,VWS V14.01,2013-01-31 05:57:00,
2013-01-31 01:02:00,50.9,50.9,29.20,WSW,254,2.0,6.0,100,0.03,,CLR,0.02,0.00,VWS V14.01,2013-01-31 06:02:00,
2013-01-31 01:07:00,50.9,50.9,29.24,WSW,250,0.0,5.0,100,0.02,,CLR,0.02,0.00,VWS V14.01,2013-01-31 06:07:00,
2013-01-31 01:12:00,50.9,50.9,29.24,NW,326,0.0,5.0,100,0.02,,CLR,0.02,0.00,VWS V14.01,2013-01-31 06:12:00,
2013-01-31 01:17:00,50.9,50.9,29.24,WSW,251,1.0,6.0,100,0.02,,CLR,0.02,0.00,VWS V14.01,2013-01-31 06:17:00,
2013-01-31 01:22:00,50.9,50.9,29.22,West,270,1.0,6.0,100,0.02,,CLR,0.02,0.00,VWS V14.01,2013-01-31 06:22:00,
2013-01-31 01:27:00,50.7,50.7,29.22,NE,35,3.0,5.0,100,0.02,,CLR,0.03,0.00,VWS V14.01,2013-01-31 06:27:00,
2013-01-31 01:32:00,49.4,49.1,29.22,NNW,347,11.0,13.0,99,0.02,,CLR,0.03,0.00,VWS V14.01,2013-01-31 06:32:00,
2013-01-31 01:38:00,47.5,47.0,29.24,North,356,6.0,19.0,98,0.02,,CLR,0.04,0.00,VWS V14.01,2013-01-31 06:38:00,
2013-01-31 01:43:00,46.7,45.9,29.24,NNW,339,6.0,19.0,97,0.02,,CLR,0.04,0.00,VWS V14.01,2013-01-31 06:43:00,
2013-01-31 01:48:00,46.3,45.2,29.24,North,353,5.0,14.0,96,0.02,,CLR,0.04,0.00,VWS V14.01,2013-01-31 06:48:00,
2013-01-31 01:53:00,45.8,44.5,29.23,North,353,7.0,14.0,95,0.02,,CLR,0.04,0.00,VWS V14.01,2013-01-31 06:53:00,
2013-01-31 01:58:00,45.7,43.2,29.23,NNW,333,11.0,14.0,91,0.02,,CLR,0.04,0.00,VWS V14.01,2013-01-31 06:58:00,
2013-01-31 02:03:00,45.7,42.7,29.23,NW,320,9.0,14.0,89,0.02,,CLR,0.04,0.00,VWS V14.01,2013-01-31 07:03:00,
2013-01-31 02:08:00,46.0,41.8,29.25,NNW,337,7.0,18.0,85,0.02,,CLR,0.04,0.00,VWS V14.01,2013-01-31 07:08:00,
2013-01-31 02:13:00,46.9,41.1,29.25,NNW,336,7.0,18.0,80,0.02,,CLR,0.04,0.00,VWS V14.01,2013-01-31 07:13:00,
2013-01-31 02:19:00,47.5,40.7,29.25,NW,326,21.0,21.0,77,0.02,,CLR,0.04,0.00,VWS V14.01,2013-01-31 07:19:00,
2013-01-31 02:24:00,46.6,39.5,29.27,North,1,26.0,33.0,76,0.02,,CLR,0.04,0.00,VWS V14.01,2013-01-31 07:24:00,
2013-01-31 02:29:00,44.7,37.9,29.27,NNW,340,17.0,22.0,77,0.01,,CLR,0.04,0.00,VWS V14.01,2013-01-31 07:29:00,
2013-01-31 02:34:00,43.6,35.5,29.34,NNW,344,11.0,22.0,73,0.01,,CLR,0.04,0.00,VWS V14.01,2013-01-31 07:34:00,
2013-01-31 02:39:00,43.5,34.7,29.34,NW,326,12.0,19.0,71,0.01,,CLR,0.04,0.00,VWS V14.01,2013-01-31 07:39:00,
2013-01-31 02:44:00,43.3,34.2,29.34,NW,323,3.0,19.0,70,0.01,,CLR,0.04,0.00,VWS V14.01,2013-01-31 07:44:00,
2013-01-31 02:50:00,43.2,33.7,29.34,West,281,10.0,19.0,69,0.00,,CLR,0.04,0.00,VWS V14.01,2013-01-31 07:50:00,
2013-01-31 02:55:00,43.5,33.7,29.34,West,274,8.0,19.0,68,0.00,,CLR,0.04,0.00,VWS V14.01,2013-01-31 07:55:00,
2013-01-31 03:00:00,43.6,33.4,29.34,North,0,8.0,20.0,67,0.00,,CLR,0.04,0.00,VWS V14.01,2013-01-31 08:00:00,
2013-01-31 03:05:00,43.6,34.1,29.35,North,354,3.0,20.0,69,0.00,,CLR,0.04,0.00,VWS V14.01,2013-01-31 08:05:00,
2013-01-31 03:10:00,43.5,34.0,29.35,NNW,333,7.0,14.0,69,0.00,,CLR,0.04,0.00,VWS V14.01,2013-01-31 08:10:00,
2013-01-31 03:15:00,43.5,33.3,29.35,NNW,337,2.0,2.0,67,0.00,,CLR,0.04,0.00,VWS V14.01,2013-01-31 08:15:00,
2013-01-31 03:20:00,43.3,33.8,29.36,North,0,2.0,8.0,69,0.00,,CLR,0.04,0.00,VWS V14.01,2013-01-31 08:20:00,
2013-01-31 03:25:00,43.1,34.0,29.36,North,349,5.0,8.0,70,0.00,,CLR,0.04,0.00,VWS V14.01,2013-01-31 08:25:00,
2013-01-31 03:31:00,42.6,34.2,29.36,North,11,8.0,14.0,72,0.00,,CLR,0.04,0.00,VWS V14.01,2013-01-31 08:31:00,
2013-01-31 03:36:00,42.3,33.2,29.38,NNE,17,9.0,9.0,70,0.00,,CLR,0.04,0.00,VWS V14.01,2013-01-31 08:36:00,
2013-01-31 03:41:00,42.2,32.8,29.38,NNW,335,9.0,13.0,69,0.00,,CLR,0.04,0.00,VWS V14.01,2013-01-31 08:41:00,
2013-01-31 03:46:00,42.2,32.0,29.38,NNW,336,7.0,19.0,67,0.00,,CLR,0.04,0.00,VWS V14.01,2013-01-31 08:46:00,
2013-01-31 03:51:00,42.2,30.5,29.39,NW,311,11.0,19.0,63,0.00,,CLR,0.04,0.00,VWS V14.01,2013-01-31 08:51:00,
2013-01-31 03:56:00,41.9,30.6,29.39,NW,313,5.0,9.0,64,0.00,,CLR,0.04,0.00,VWS V14.01,2013-01-31 08:56:00,
2013-01-31 04:01:00,41.8,30.1,29.39,WSW,257,12.0,20.0,63,0.00,,CLR,0.04,0.00,VWS V14.01,2013-01-31 09:01:00,
2013-01-31 04:06:00,41.9,28.6,29.38,North,0,11.0,29.0,59,0.00,,CLR,0.04,0.00,VWS V14.01,2013-01-31 09:06:00,
2013-01-31 04:12:00,41.8,28.5,29.38,NNW,330,13.0,29.0,59,0.00,,CLR,0.04,0.00,VWS V14.01,2013-01-31 09:12:00,
2013-01-31 04:17:00,41.8,29.0,29.38,West,264,8.0,22.0,60,0.00,,CLR,0.04,0.00,VWS V14.01,2013-01-31 09:17:00,
2013-01-31 04:22:00,41.8,29.0,29.39,NW,323,2.0,22.0,60,0.00,,CLR,0.04,0.00,VWS V14.01,2013-01-31 09:22:00,
2013-01-31 04:27:00,41.6,30.3,29.39,North,0,13.0,13.0,64,0.00,,CLR,0.04,0.00,VWS V14.01,2013-01-31 09:27:00,
2013-01-31 04:32:00,40.5,31.5,29.39,North,352,7.0,20.0,70,0.00,,CLR,0.04,0.00,VWS V14.01,2013-01-31 09:32:00,
2013-01-31 04:37:00,39.3,31.0,29.43,NNW,329,18.0,21.0,72,0.00,,CLR,0.04,0.00,VWS V14.01,2013-01-31 09:37:00,
2013-01-31 04:42:00,38.6,30.4,29.43,NNW,343,20.0,25.0,72,0.00,,CLR,0.04,0.00,VWS V14.01,2013-01-31 09:42:00,
2013-01-31 04:47:00,38.3,30.4,29.43,North,357,5.0,11.0,73,0.00,,CLR,0.04,0.00,VWS V14.01,2013-01-31 09:47:00,
2013-01-31 04:52:00,38.1,30.6,29.43,North,0,2.0,12.0,74,0.00,,CLR,0.04,0.00,VWS V14.01,2013-01-31 09:52:00,
2013-01-31 04:57:00,38.3,30.4,29.43,NNW,339,5.0,10.0,73,0.00,,CLR,0.04,0.00,VWS V14.01,2013-01-31 09:57:00,
2013-01-31 05:02:00,38.8,28.1,29.43,NNE,27,11.0,21.0,65,0.00,,CLR,0.04,0.00,VWS V14.01,2013-01-31 10:02:00,
2013-01-31 05:08:00,38.9,27.8,29.46,North,359,7.0,16.0,64,0.00,,CLR,0.04,0.00,VWS V14.01,2013-01-31 10:08:00,
2013-01-31 05:13:00,38.6,29.0,29.46,WNW,298,22.0,22.0,68,0.00,,CLR,0.04,0.00,VWS V14.01,2013-01-31 10:13:00,
2013-01-31 05:18:00,37.8,29.3,29.46,NNW,342,11.0,22.0,71,0.00,,CLR,0.04,0.00,VWS V14.01,2013-01-31 10:18:00,
2013-01-31 05:23:00,37.0,29.5,29.48,NW,318,5.0,22.0,74,0.00,,CLR,0.04,0.00,VWS V14.01,2013-01-31 10:23:00,
2013-01-31 05:28:00,36.6,28.8,29.48,NNW,343,6.0,18.0,73,0.00,,CLR,0.04,0.00,VWS V14.01,2013-01-31 10:28:00,
2013-01-31 05:33:00,36.6,28.4,29.48,NW,312,11.0,21.0,72,0.00,,CLR,0.04,0.00,VWS V14.01,2013-01-31 10:33:00,
2013-01-31 05:38:00,36.6,27.8,29.49,NW,322,3.0,18.0,70,0.00,,CLR,0.04,0.00,VWS V14.01,2013-01-31 10:38:00,
2013-01-31 05:43:00,36.6,27.4,29.49,NNW,330,11.0,21.0,69,0.00,,CLR,0.04,0.00,VWS V14.01,2013-01-31 10:43:00,
2013-01-31 05:48:00,36.3,26.8,29.49,North,4,15.0,20.0,68,0.00,,CLR,0.04,0.00,VWS V14.01,2013-01-31 10:48:00,
2013-01-31 05:53:00,36.0,26.5,29.51,North,0,9.0,20.0,68,0.00,,CLR,0.04,0.00,VWS V14.01,2013-01-31 10:53:00,
2013-01-31 05:58:00,35.8,25.6,29.51,North,0,6.0,19.0,66,0.00,,CLR,0.04,0.00,VWS V14.01,2013-01-31 10:58:00,
2013-01-31 06:03:00,35.6,25.7,29.51,NNW,340,6.0,22.0,67,0.00,,CLR,0.04,0.00,VWS V14.01,2013-01-31 11:03:00,
2013-01-31 06:08:00,35.5,25.6,29.53,NNW,333,14.0,17.0,67,0.00,,CLR,0.04,0.00,VWS V14.01,2013-01-31 11:08:00,
2013-01-31 06:13:00,35.3,25.8,29.53,NNW,329,13.0,20.0,68,0.00,,CLR,0.04,0.00,VWS V14.01,2013-01-31 11:13:00,
2013-01-31 06:19:00,35.0,26.6,29.53,NW,319,6.0,18.0,71,0.00,,CLR,0.04,0.00,VWS V14.01,2013-01-31 11:19:00,
2013-01-31 06:24:00,34.8,26.7,29.54,NW,319,3.0,18.0,72,0.00,,CLR,0.04,0.00,VWS V14.01,2013-01-31 11:24:00,
2013-01-31 06:29:00,34.6,26.2,29.54,NNW,339,6.0,12.0,71,0.00,,CLR,0.04,0.00,VWS V14.01,2013-01-31 11:29:00,
2013-01-31 06:34:00,34.5,25.7,29.54,NW,319,6.0,12.0,70,0.00,,CLR,0.04,0.00,VWS V14.01,2013-01-31 11:34:00,
2013-01-31 06:39:00,34.6,25.1,29.56,North,350,6.0,16.0,68,0.00,,CLR,0.04,0.00,VWS V14.01,2013-01-31 11:39:00,
2013-01-31 06:44:00,34.6,24.8,29.56,NW,322,3.0,20.0,67,0.00,,CLR,0.04,0.00,VWS V14.01,2013-01-31 11:44:00,
2013-01-31 06:49:00,34.5,24.7,29.56,WNW,289,19.0,19.0,67,0.00,,CLR,0.04,0.00,VWS V14.01,2013-01-31 11:49:00,
2013-01-31 06:54:00,34.5,24.0,29.57,North,354,7.0,21.0,65,0.00,,CLR,0.04,0.00,VWS V14.01,2013-01-31 11:54:00,
2013-01-31 06:59:00,34.2,24.4,29.57,NNW,333,11.0,19.0,67,0.00,,CLR,0.04,0.00,VWS V14.01,2013-01-31 11:59:00,
2013-01-31 07:04:00,33.9,24.5,29.57,WNW,294,5.0,19.0,68,0.00,,CLR,0.04,0.00,VWS V14.01,2013-01-31 12:04:00,
2013-01-31 07:09:00,33.9,24.5,29.57,WNW,288,11.0,17.0,68,0.00,,CLR,0.04,0.00,VWS V14.01,2013-01-31 12:09:00,
2013-01-31 07:15:00,34.0,23.9,29.57,NNW,330,6.0,19.0,66,0.00,,CLR,0.04,0.00,VWS V14.01,2013-01-31 12:15:00,
2013-01-31 07:20:00,33.7,24.3,29.59,NW,319,10.0,17.0,68,0.00,,CLR,0.04,5.00,VWS V14.01,2013-01-31 12:20:00,
2013-01-31 07:25:00,33.7,24.3,29.59,NW,323,12.0,22.0,68,0.00,,CLR,0.04,7.00,VWS V14.01,2013-01-31 12:25:00,
2013-01-31 07:30:00,33.7,24.3,29.59,WNW,301,10.0,14.0,68,0.00,,CLR,0.04,7.00,VWS V14.01,2013-01-31 12:30:00,
2013-01-31 07:35:00,33.4,24.0,29.60,NW,311,7.0,17.0,68,0.00,,CLR,0.04,11.00,VWS V14.01,2013-01-31 12:35:00,
2013-01-31 07:40:00,33.4,22.9,29.60,NNW,347,7.0,22.0,65,0.00,,CLR,0.04,11.00,VWS V14.01,2013-01-31 12:40:00,
2013-01-31 07:45:00,33.6,22.7,29.60,North,350,16.0,22.0,64,0.00,,CLR,0.04,12.00,VWS V14.01,2013-01-31 12:45:00,
2013-01-31 07:50:00,33.6,21.6,29.61,NNW,335,13.0,20.0,61,0.00,,CLR,0.04,18.00,VWS V14.01,2013-01-31 12:50:00,
2013-01-31 07:55:00,33.7,21.7,29.61,NNW,330,11.0,12.0,61,0.00,,CLR,0.04,25.00,VWS V14.01,2013-01-31 12:55:00,
2013-01-31 08:00:00,33.9,21.1,29.61,NNW,335,8.0,18.0,59,0.00,,CLR,0.04,32.00,VWS V14.01,2013-01-31 13:00:00,
2013-01-31 08:05:00,33.7,20.1,29.62,WNW,294,10.0,11.0,57,0.00,,CLR,0.04,39.00,VWS V14.01,2013-01-31 13:05:00,
2013-01-31 08:10:00,34.0,18.7,29.62,North,357,14.0,30.0,53,0.00,,CLR,0.04,60.00,VWS V14.01,2013-01-31 13:10:00,
2013-01-31 08:15:00,34.2,19.3,29.62,North,1,11.0,16.0,54,0.00,,CLR,0.04,58.00,VWS V14.01,2013-01-31 13:15:00,
2013-01-31 08:21:00,34.2,20.1,29.63,NNW,337,9.0,16.0,56,0.00,,CLR,0.04,44.00,VWS V14.01,2013-01-31 13:21:00,
2013-01-31 08:26:00,34.2,20.6,29.63,North,350,5.0,12.0,57,0.00,,CLR,0.04,60.00,VWS V14.01,2013-01-31 13:26:00,
2013-01-31 08:31:00,34.0,20.8,29.63,NW,313,9.0,17.0,58,0.00,,CLR,0.04,55.00,VWS V14.01,2013-01-31 13:31:00,
2013-01-31 08:36:00,34.0,20.4,29.63,North,0,6.0,7.0,57,0.00,,CLR,0.04,60.00,VWS V14.01,2013-01-31 13:36:00,
2013-01-31 08:41:00,33.9,20.7,29.63,North,353,11.0,19.0,58,0.00,,CLR,0.04,69.00,VWS V14.01,2013-01-31 13:41:00,
2013-01-31 08:46:00,33.9,20.7,29.63,NNW,346,10.0,11.0,58,0.00,,CLR,0.04,90.00,VWS V14.01,2013-01-31 13:46:00,
2013-01-31 08:51:00,34.0,22.0,29.63,North,0,3.0,11.0,61,0.00,,CLR,0.04,88.00,VWS V14.01,2013-01-31 13:51:00,
2013-01-31 08:56:00,34.0,21.2,29.63,NW,304,13.0,13.0,59,0.00,,CLR,0.04,79.00,VWS V14.01,2013-01-31 13:56:00,
2013-01-31 09:01:00,34.0,21.6,29.63,NW,316,12.0,15.0,60,0.00,,CLR,0.04,76.00,VWS V14.01,2013-01-31 14:01:00,
2013-01-31 09:06:00,33.7,22.5,29.65,North,0,8.0,15.0,63,0.00,,CLR,0.04,100.00,VWS V14.01,2013-01-31 14:06:00,
2013-01-31 09:11:00,33.3,24.2,29.65,North,0,11.0,15.0,69,0.00,,CLR,0.04,111.00,VWS V14.01,2013-01-31 14:11:00,
2013-01-31 09:17:00,32.7,24.7,29.65,NW,322,3.0,7.0,72,0.00,,CLR,0.04,135.00,VWS V14.01,2013-01-31 14:17:00,
2013-01-31 09:22:00,32.5,24.8,29.65,NNW,328,5.0,10.0,73,0.00,,CLR,0.04,104.00,VWS V14.01,2013-01-31 14:22:00,
2013-01-31 09:27:00,32.7,24.0,29.65,NNW,333,8.0,11.0,70,0.00,,CLR,0.04,141.00,VWS V14.01,2013-01-31 14:27:00,
2013-01-31 09:32:00,32.8,22.0,29.65,North,7,6.0,16.0,64,0.00,,CLR,0.04,90.00,VWS V14.01,2013-01-31 14:32:00,
2013-01-31 09:37:00,33.1,21.9,29.67,NW,318,10.0,14.0,63,0.00,,CLR,0.04,100.00,VWS V14.01,2013-01-31 14:37:00,
2013-01-31 09:42:00,33.4,20.2,29.67,NW,312,15.0,24.0,58,0.00,,CLR,0.04,153.00,VWS V14.01,2013-01-31 14:42:00,
2013-01-31 09:47:00,33.6,20.0,29.67,North,4,10.0,16.0,57,0.00,,CLR,0.04,146.00,VWS V14.01,2013-01-31 14:47:00,
2013-01-31 09:52:00,33.9,19.9,29.67,NNW,328,12.0,18.0,56,0.00,,CLR,0.04,192.00,VWS V14.01,2013-01-31 14:52:00,
2013-01-31 09:57:00,34.0,18.7,29.67,NNW,333,8.0,18.0,53,0.00,,CLR,0.04,192.00,VWS V14.01,2013-01-31 14:57:00,
2013-01-31 10:03:00,34.0,17.3,29.67,NNW,339,22.0,26.0,50,0.00,,CLR,0.04,190.00,VWS V14.01,2013-01-31 15:03:00,
2013-01-31 10:08:00,34.0,17.3,29.69,NW,311,15.0,20.0,50,0.00,,CLR,0.04,183.00,VWS V14.01,2013-01-31 15:08:00,
2013-01-31 10:13:00,34.0,17.3,29.69,NNW,330,9.0,25.0,50,0.00,,CLR,0.04,155.00,VWS V14.01,2013-01-31 15:13:00,
2013-01-31 10:18:00,34.0,15.4,29.69,NW,325,12.0,19.0,46,0.00,,CLR,0.04,343.00,VWS V14.01,2013-01-31 15:18:00,
2013-01-31 10:23:00,34.2,15.1,29.70,NW,306,5.0,24.0,45,0.00,,CLR,0.04,343.00,VWS V14.01,2013-01-31 15:23:00,
2013-01-31 10:28:00,34.6,15.5,29.70,NW,323,17.0,27.0,45,0.00,,CLR,0.04,558.00,VWS V14.01,2013-01-31 15:28:00,
2013-01-31 10:33:00,34.3,14.7,29.70,WNW,295,27.0,27.0,44,0.00,,CLR,0.04,558.00,VWS V14.01,2013-01-31 15:33:00,
2013-01-31 10:38:00,34.2,15.1,29.72,West,277,10.0,28.0,45,0.00,,CLR,0.04,179.00,VWS V14.01,2013-01-31 15:38:00,
2013-01-31 10:43:00,34.0,15.4,29.72,West,272,18.0,28.0,46,0.00,,CLR,0.04,179.00,VWS V14.01,2013-01-31 15:43:00,
2013-01-31 10:48:00,33.9,14.3,29.72,WNW,299,22.0,25.0,44,0.00,,CLR,0.04,188.00,VWS V14.01,2013-01-31 15:48:00,
2013-01-31 10:53:00,33.7,15.1,29.72,NNW,332,16.0,28.0,46,0.00,,CLR,0.04,187.00,VWS V14.01,2013-01-31 15:53:00,
2013-01-31 10:58:00,33.6,14.5,29.72,North,8,19.0,25.0,45,0.00,,CLR,0.04,164.00,VWS V14.01,2013-01-31 15:58:00,
2013-01-31 11:03:00,33.6,16.0,29.72,NW,319,17.0,25.0,48,0.00,,CLR,0.04,190.00,VWS V14.01,2013-01-31 16:03:00,
2013-01-31 11:09:00,33.6,15.0,29.73,NW,323,17.0,30.0,46,0.00,,CLR,0.04,165.00,VWS V14.01,2013-01-31 16:09:00,
2013-01-31 11:14:00,33.7,15.1,29.73,NW,308,8.0,30.0,46,0.00,,CLR,0.04,195.00,VWS V14.01,2013-01-31 16:14:00,
2013-01-31 11:19:00,33.7,14.6,29.73,NNW,328,6.0,21.0,45,0.00,,CLR,0.04,271.00,VWS V14.01,2013-01-31 16:19:00,
2013-01-31 11:24:00,34.0,15.4,29.73,NW,305,16.0,21.0,46,0.00,,CLR,0.04,216.00,VWS V14.01,2013-01-31 16:24:00,
2013-01-31 11:29:00,33.9,15.3,29.73,North,0,12.0,21.0,46,0.00,,CLR,0.04,178.00,VWS V14.01,2013-01-31 16:29:00,
2013-01-31 11:34:00,33.4,15.8,29.73,NNW,340,13.0,27.0,48,0.00,,CLR,0.04,164.00,VWS V14.01,2013-01-31 16:34:00,
2013-01-31 11:39:00,33.4,16.8,29.75,NNW,330,13.0,24.0,50,0.00,,CLR,0.04,195.00,VWS V14.01,2013-01-31 16:39:00,
2013-01-31 11:44:00,33.0,15.0,29.75,NNW,346,8.0,26.0,47,0.00,,CLR,0.04,185.00,VWS V14.01,2013-01-31 16:44:00,
2013-01-31 11:49:00,32.8,16.2,29.75,NW,323,12.0,20.0,50,0.00,,CLR,0.04,162.00,VWS V14.01,2013-01-31 16:49:00,
2013-01-31 11:54:00,33.0,15.5,29.75,NW,322,17.0,26.0,48,0.00,,CLR,0.04,245.00,VWS V14.01,2013-01-31 16:54:00,
2013-01-31 11:59:00,33.1,14.6,29.75,NW,320,12.0,25.0,46,0.00,,CLR,0.04,290.00,VWS V14.01,2013-01-31 16:59:00,
2013-01-31 12:05:00,33.1,16.5,29.76,North,0,10.0,25.0,50,0.00,,CLR,0.04,172.00,VWS V14.01,2013-01-31 17:05:00,
2013-01-31 12:10:00,33.0,14.5,29.76,North,353,6.0,20.0,46,0.00,,CLR,0.04,160.00,VWS V14.01,2013-01-31 17:10:00,
2013-01-31 12:15:00,32.8,14.3,29.76,West,275,20.0,25.0,46,0.00,,CLR,0.04,174.00,VWS V14.01,2013-01-31 17:15:00,
2013-01-31 12:20:00,32.4,13.9,29.76,NW,311,12.0,32.0,46,0.00,,CLR,0.04,141.00,VWS V14.01,2013-01-31 17:20:00,
2013-01-31 12:25:00,32.1,14.6,29.76,North,354,7.0,8.0,48,0.00,,CLR,0.04,134.00,VWS V14.01,2013-01-31 17:25:00,
2013-01-31 12:30:00,32.2,16.1,29.76,NNW,328,7.0,17.0,51,0.00,,CLR,0.04,157.00,VWS V14.01,2013-01-31 17:30:00,
2013-01-31 12:35:00,32.1,15.6,29.76,NW,323,6.0,10.0,50,0.00,,CLR,0.04,148.00,VWS V14.01,2013-01-31 17:35:00,
2013-01-31 12:40:00,31.9,15.4,29.76,North,4,7.0,18.0,50,0.00,,CLR,0.04,157.00,VWS V14.01,2013-01-31 17:40:00,
2013-01-31 12:45:00,31.9,15.4,29.76,North,357,6.0,11.0,50,0.00,,CLR,0.04,153.00,VWS V14.01,2013-01-31 17:45:00,
2013-01-31 12:51:00,32.1,16.0,29.75,NW,326,8.0,11.0,51,0.00,,CLR,0.04,146.00,VWS V14.01,2013-01-31 17:51:00,
2013-01-31 12:56:00,32.4,17.2,29.75,NNW,343,0.0,3.0,53,0.00,,CLR,0.04,125.00,VWS V14.01,2013-01-31 17:56:00,
2013-01-31 13:01:00,32.4,15.4,29.75,NW,312,5.0,13.0,49,0.00,,CLR,0.04,106.00,VWS V14.01,2013-01-31 18:01:00,
2013-01-31 13:06:00,32.1,15.6,29.75,NW,323,12.0,12.0,50,0.00,,CLR,0.04,88.00,VWS V14.01,2013-01-31 18:06:00,
2013-01-31 13:11:00,31.8,16.6,29.75,WNW,284,12.0,19.0,53,0.00,,CLR,0.04,90.00,VWS V14.01,2013-01-31 18:11:00,
2013-01-31 13:16:00,31.2,17.3,29.75,West,271,3.0,12.0,56,0.00,,CLR,0.04,81.00,VWS V14.01,2013-01-31 18:16:00,
2013-01-31 13:21:00,31.1,18.5,29.76,North,0,10.0,13.0,59,0.00,,CLR,0.04,109.00,VWS V14.01,2013-01-31 18:21:00,
2013-01-31 13:26:00,30.3,20.3,29.76,NNW,339,7.0,16.0,66,0.00,,CLR,0.04,165.00,VWS V14.01,2013-01-31 18:26:00,
2013-01-31 13:32:00,29.7,21.1,29.76,NW,306,8.0,18.0,70,0.00,,CLR,0.04,139.00,VWS V14.01,2013-01-31 18:32:00,
2013-01-31 13:37:00,29.0,22.7,29.77,North,0,6.0,7.0,77,0.00,,CLR,0.04,127.00,VWS V14.01,2013-01-31 18:37:00,
2013-01-31 13:42:00,28.4,22.4,29.77,WNW,302,8.0,21.0,78,0.00,,CLR,0.04,146.00,VWS V14.01,2013-01-31 18:42:00,
2013-01-31 13:47:00,28.4,21.8,29.77,North,0,8.0,12.0,76,0.00,,CLR,0.04,162.00,VWS V14.01,2013-01-31 18:47:00,
2013-01-31 13:52:00,28.8,20.9,29.76,NW,322,16.0,16.0,72,0.00,,CLR,0.04,162.00,VWS V14.01,2013-01-31 18:52:00,
2013-01-31 13:57:00,29.6,21.4,29.76,NNW,339,17.0,20.0,71,0.00,,CLR,0.04,125.00,VWS V14.01,2013-01-31 18:57:00,
2013-01-31 14:02:00,30.5,16.7,29.76,NNW,329,7.0,20.0,56,0.00,,CLR,0.04,113.00,VWS V14.01,2013-01-31 19:02:00,
2013-01-31 14:07:00,31.1,16.8,29.77,NW,304,16.0,20.0,55,0.00,,CLR,0.04,97.00,VWS V14.01,2013-01-31 19:07:00,
2013-01-31 14:12:00,31.2,16.1,29.77,NW,322,19.0,22.0,53,0.00,,CLR,0.04,106.00,VWS V14.01,2013-01-31 19:12:00,
2013-01-31 14:17:00,31.1,16.8,29.77,North,0,7.0,18.0,55,0.00,,CLR,0.04,132.00,VWS V14.01,2013-01-31 19:17:00,
2013-01-31 14:23:00,31.1,17.2,29.78,North,0,10.0,18.0,56,0.00,,CLR,0.04,104.00,VWS V14.01,2013-01-31 19:23:00,
2013-01-31 14:28:00,30.9,17.5,29.78,North,7,7.0,16.0,57,0.00,,CLR,0.04,144.00,VWS V14.01,2013-01-31 19:28:00,
2013-01-31 14:33:00,30.9,18.7,29.78,NNW,328,14.0,16.0,60,0.00,,CLR,0.04,162.00,VWS V14.01,2013-01-31 19:33:00,
2013-01-31 14:38:00,30.8,18.2,29.78,NNE,18,5.0,11.0,59,0.00,,CLR,0.04,116.00,VWS V14.01,2013-01-31 19:38:00,
2013-01-31 14:43:00,30.6,18.8,29.78,North,8,7.0,11.0,61,0.00,,CLR,0.04,120.00,VWS V14.01,2013-01-31 19:43:00,
2013-01-31 14:48:00,30.8,17.0,29.78,NW,322,7.0,14.0,56,0.00,,CLR,0.04,118.00,VWS V14.01,2013-01-31 19:48:00,
2013-01-31 14:53:00,31.2,17.3,29.78,NNW,330,10.0,14.0,56,0.00,,CLR,0.04,99.00,VWS V14.01,2013-01-31 19:53:00,
2013-01-31 14:58:00,31.4,16.7,29.78,NW,316,10.0,11.0,54,0.00,,CLR,0.04,123.00,VWS V14.01,2013-01-31 19:58:00,
2013-01-31 15:03:00,31.5,17.6,29.78,North,0,8.0,13.0,56,0.00,,CLR,0.04,104.00,VWS V14.01,2013-01-31 20:03:00,
2013-01-31 15:08:00,31.2,18.2,29.79,North,349,11.0,12.0,58,0.00,,CLR,0.04,106.00,VWS V14.01,2013-01-31 20:08:00,
2013-01-31 15:13:00,30.8,19.0,29.79,North,0,7.0,14.0,61,0.00,,CLR,0.04,95.00,VWS V14.01,2013-01-31 20:13:00,
2013-01-31 15:18:00,30.5,19.0,29.79,NNW,336,7.0,11.0,62,0.00,,CLR,0.04,74.00,VWS V14.01,2013-01-31 20:18:00,
2013-01-31 15:24:00,30.3,18.9,29.80,North,353,10.0,16.0,62,0.00,,CLR,0.04,109.00,VWS V14.01,2013-01-31 20:24:00,
2013-01-31 15:29:00,30.5,17.9,29.80,NNW,347,3.0,13.0,59,0.00,,CLR,0.04,116.00,VWS V14.01,2013-01-31 20:29:00,
2013-01-31 15:34:00,30.6,17.6,29.80,North,0,7.0,18.0,58,0.00,,CLR,0.04,106.00,VWS V14.01,2013-01-31 20:34:00,
2013-01-31 15:39:00,30.8,17.4,29.81,NW,304,16.0,16.0,57,0.00,,CLR,0.04,116.00,VWS V14.01,2013-01-31 20:39:00,
2013-01-31 15:44:00,30.9,17.9,29.81,North,349,10.0,19.0,58,0.00,,CLR,0.04,139.00,VWS V14.01,2013-01-31 20:44:00,
2013-01-31 15:49:00,31.1,18.1,29.81,NW,326,13.0,16.0,58,0.00,,CLR,0.04,65.00,VWS V14.01,2013-01-31 20:49:00,
2013-01-31 15:54:00,31.1,18.1,29.81,NW,313,6.0,16.0,58,0.00,,CLR,0.04,49.00,VWS V14.01,2013-01-31 20:54:00,
2013-01-31 15:59:00,30.8,19.0,29.81,WNW,294,16.0,16.0,61,0.00,,CLR,0.04,30.00,VWS V14.01,2013-01-31 20:59:00,
2013-01-31 16:04:00,30.0,20.0,29.84,NNW,339,6.0,19.0,66,0.00,,CLR,0.04,49.00,VWS V14.01,2013-01-31 21:04:00,
2013-01-31 16:09:00,29.4,20.8,29.84,NW,316,9.0,13.0,70,0.00,,CLR,0.04,46.00,VWS V14.01,2013-01-31 21:09:00,
2013-01-31 16:14:00,29.0,20.5,29.84,North,0,6.0,18.0,70,0.00,,CLR,0.04,53.00,VWS V14.01,2013-01-31 21:14:00,
2013-01-31 16:19:00,28.8,20.6,29.85,NW,320,13.0,16.0,71,0.00,,CLR,0.04,58.00,VWS V14.01,2013-01-31 21:19:00,
2013-01-31 16:25:00,28.8,19.2,29.85,North,0,6.0,17.0,67,0.00,,CLR,0.04,86.00,VWS V14.01,2013-01-31 21:25:00,
2013-01-31 16:30:00,28.8,18.5,29.85,NW,318,7.0,13.0,65,0.00,,CLR,0.04,72.00,VWS V14.01,2013-01-31 21:30:00,
2013-01-31 16:35:00,29.0,18.0,29.86,North,0,3.0,16.0,63,0.00,,CLR,0.04,84.00,VWS V14.01,2013-01-31 21:35:00,
2013-01-31 16:40:00,29.0,16.1,29.86,NW,318,6.0,22.0,58,0.00,,CLR,0.04,60.00,VWS V14.01,2013-01-31 21:40:00,
2013-01-31 16:45:00,29.1,15.4,29.86,NNW,335,13.0,22.0,56,0.00,,CLR,0.04,42.00,VWS V14.01,2013-01-31 21:45:00,
2013-01-31 16:50:00,29.3,14.3,29.87,North,0,12.0,14.0,53,0.00,,CLR,0.04,33.00,VWS V14.01,2013-01-31 21:50:00,
2013-01-31 16:55:00,29.1,14.5,29.87,NW,325,7.0,7.0,54,0.00,,CLR,0.04,28.00,VWS V14.01,2013-01-31 21:55:00,
2013-01-31 17:00:00,28.8,15.1,29.87,North,356,5.0,13.0,56,0.00,,CLR,0.04,26.00,VWS V14.01,2013-01-31 22:00:00,
2013-01-31 17:05:00,28.5,16.4,29.88,North,0,6.0,10.0,60,0.00,,CLR,0.04,23.00,VWS V14.01,2013-01-31 22:05:00,
2013-01-31 17:10:00,28.1,16.4,29.88,NNE,23,8.0,10.0,61,0.00,,CLR,0.04,26.00,VWS V14.01,2013-01-31 22:10:00,
2013-01-31 17:15:00,28.0,15.9,29.88,NNW,330,11.0,13.0,60,0.00,,CLR,0.04,19.00,VWS V14.01,2013-01-31 22:15:00,
2013-01-31 17:21:00,28.4,12.1,29.89,North,0,11.0,20.0,50,0.00,,CLR,0.04,14.00,VWS V14.01,2013-01-31 22:21:00,
2013-01-31 17:26:00,28.4,11.7,29.89,North,0,12.0,13.0,49,0.00,,CLR,0.04,11.00,VWS V14.01,2013-01-31 22:26:00,
2013-01-31 17:31:00,28.4,12.6,29.89,North,359,8.0,18.0,51,0.00,,CLR,0.04,9.00,VWS V14.01,2013-01-31 22:31:00,
2013-01-31 17:36:00,28.4,13.0,29.90,WNW,302,7.0,11.0,52,0.00,,CLR,0.04,7.00,VWS V14.01,2013-01-31 22:36:00,
2013-01-31 17:41:00,28.4,13.5,29.90,NNW,342,5.0,14.0,53,0.00,,CLR,0.04,5.00,VWS V14.01,2013-01-31 22:41:00,
2013-01-31 17:46:00,28.3,12.9,29.90,NNW,330,4.0,12.0,52,0.00,,CLR,0.04,0.00,VWS V14.01,2013-01-31 22:46:00,
2013-01-31 17:51:00,28.4,13.0,29.90,North,357,6.0,13.0,52,0.00,,CLR,0.04,0.00,VWS V14.01,2013-01-31 22:51:00,
2013-01-31 17:56:00,28.4,13.9,29.90,NNW,343,3.0,7.0,54,0.00,,CLR,0.04,0.00,VWS V14.01,2013-01-31 22:56:00,
2013-01-31 18:01:00,28.4,12.6,29.90,WNW,301,11.0,13.0,51,0.00,,CLR,0.04,0.00,VWS V14.01,2013-01-31 23:01:00,
2013-01-31 18:06:00,28.5,12.7,29.90,NW,319,6.0,11.0,51,0.00,,CLR,0.04,0.00,VWS V14.01,2013-01-31 23:06:00,
2013-01-31 18:11:00,28.5,12.2,29.90,North,0,6.0,14.0,50,0.00,,CLR,0.04,0.00,VWS V14.01,2013-01-31 23:11:00,
2013-01-31 18:17:00,28.5,12.2,29.90,NW,319,3.0,6.0,50,0.00,,CLR,0.04,0.00,VWS V14.01,2013-01-31 23:17:00,
2013-01-31 18:22:00,28.5,11.8,29.91,North,356,6.0,17.0,49,0.00,,CLR,0.04,0.00,VWS V14.01,2013-01-31 23:22:00,
2013-01-31 18:27:00,28.5,12.2,29.91,NNW,337,10.0,11.0,50,0.00,,CLR,0.04,0.00,VWS V14.01,2013-01-31 23:27:00,
2013-01-31 18:32:00,28.5,12.2,29.91,North,0,8.0,13.0,50,0.00,,CLR,0.04,0.00,VWS V14.01,2013-01-31 23:32:00,
2013-01-31 18:37:00,28.5,12.2,29.90,NW,304,6.0,7.0,50,0.00,,CLR,0.04,0.00,VWS V14.01,2013-01-31 23:37:00,
2013-01-31 18:42:00,28.5,11.8,29.90,NW,306,7.0,16.0,49,0.00,,CLR,0.04,0.00,VWS V14.01,2013-01-31 23:42:00,
2013-01-31 18:47:00,28.5,12.2,29.90,North,353,6.0,14.0,50,0.00,,CLR,0.04,0.00,VWS V14.01,2013-01-31 23:47:00,
2013-01-31 18:52:00,28.7,12.0,29.91,North,0,7.0,21.0,49,0.00,,CLR,0.04,0.00,VWS V14.01,2013-01-31 23:52:00,
2013-01-31 18:57:00,28.7,12.0,29.91,North,0,6.0,10.0,49,0.00,,CLR,0.04,0.00,VWS V14.01,2013-01-31 23:57:00,
2013-01-31 19:02:00,28.5,12.2,29.91,North,354,10.0,13.0,50,0.00,,CLR,0.04,0.00,VWS V14.01,2013-02-01 00:02:00,
2013-01-31 19:07:00,28.5,12.7,29.91,North,0,12.0,14.0,51,0.00,,CLR,0.04,0.00,VWS V14.01,2013-02-01 00:07:00,
2013-01-31 19:13:00,28.5,12.2,29.91,North,0,2.0,14.0,50,0.00,,CLR,0.04,0.00,VWS V14.01,2013-02-01 00:13:00,
2013-01-31 19:18:00,28.5,12.7,29.91,NW,326,6.0,8.0,51,0.00,,CLR,0.04,0.00,VWS V14.01,2013-02-01 00:18:00,
2013-01-31 19:23:00,28.5,13.1,29.91,North,350,10.0,17.0,52,0.00,,CLR,0.04,0.00,VWS V14.01,2013-02-01 00:23:00,
2013-01-31 19:28:00,28.4,13.5,29.91,North,356,6.0,12.0,53,0.00,,CLR,0.04,0.00,VWS V14.01,2013-02-01 00:28:00,
2013-01-31 19:33:00,28.4,13.0,29.91,North,6,5.0,16.0,52,0.00,,CLR,0.04,0.00,VWS V14.01,2013-02-01 00:33:00,
2013-01-31 19:38:00,28.4,13.5,29.90,North,349,0.0,5.0,53,0.00,,CLR,0.04,0.00,VWS V14.01,2013-02-01 00:38:00,
2013-01-31 19:43:00,28.3,12.9,29.90,NNW,342,1.0,5.0,52,0.00,,CLR,0.04,0.00,VWS V14.01,2013-02-01 00:43:00,
2013-01-31 19:48:00,28.1,12.8,29.90,North,0,5.0,10.0,52,0.00,,CLR,0.04,0.00,VWS V14.01,2013-02-01 00:48:00,
2013-01-31 19:53:00,28.1,12.8,29.91,West,272,6.0,10.0,52,0.00,,CLR,0.04,0.00,VWS V14.01,2013-02-01 00:53:00,
2013-01-31 19:58:00,28.3,12.9,29.91,NW,313,2.0,8.0,52,0.00,,CLR,0.04,0.00,VWS V14.01,2013-02-01 00:58:00,
2013-01-31 20:03:00,28.3,13.4,29.91,NW,319,8.0,10.0,53,0.00,,CLR,0.04,0.00,VWS V14.01,2013-02-01 01:03:00,
2013-01-31 20:08:00,28.4,13.5,29.91,NNW,347,9.0,13.0,53,0.00,,CLR,0.04,0.00,VWS V14.01,2013-02-01 01:08:00,
2013-01-31 20:13:00,28.4,13.5,29.91,NNW,328,5.0,18.0,53,0.00,,CLR,0.04,0.00,VWS V14.01,2013-02-01 01:13:00,
2013-01-31 20:19:00,28.4,13.0,29.91,NW,322,6.0,10.0,52,0.00,,CLR,0.04,0.00,VWS V14.01,2013-02-01 01:19:00,
2013-01-31 20:24:00,28.3,13.4,29.90,North,0,7.0,10.0,53,0.00,,CLR,0.04,0.00,VWS V14.01,2013-02-01 01:24:00,
2013-01-31 20:29:00,28.1,13.6,29.90,NNW,329,1.0,5.0,54,0.00,,CLR,0.04,0.00,VWS V14.01,2013-02-01 01:29:00,
2013-01-31 20:34:00,28.1,13.6,29.90,NNW,333,7.0,8.0,54,0.00,,CLR,0.04,0.00,VWS V14.01,2013-02-01 01:34:00,
2013-01-31 20:39:00,28.1,13.6,29.90,WNW,288,8.0,12.0,54,0.00,,CLR,0.04,0.00,VWS V14.01,2013-02-01 01:39:00,
2013-01-31 20:44:00,28.3,13.8,29.90,NNW,346,8.0,12.0,54,0.00,,CLR,0.04,0.00,VWS V14.01,2013-02-01 01:44:00,
2013-01-31 20:49:00,28.4,13.0,29.90,NNW,330,7.0,10.0,52,0.00,,CLR,0.04,0.00,VWS V14.01,2013-02-01 01:49:00,
2013-01-31 20:54:00,28.5,13.6,29.90,North,0,4.0,13.0,53,0.00,,CLR,0.04,0.00,VWS V14.01,2013-02-01 01:54:00,
2013-01-31 21:00:00,28.7,13.8,29.90,NNW,328,5.0,11.0,53,0.00,,CLR,0.04,0.00,VWS V14.01,2013-02-01 02:00:00,
2013-01-31 21:05:00,28.7,13.3,29.91,NNW,333,7.0,14.0,52,0.00,,CLR,0.04,0.00,VWS V14.01,2013-02-01 02:05:00,
2013-01-31 21:10:00,28.8,14.3,29.91,WNW,288,6.0,16.0,54,0.00,,CLR,0.04,0.00,VWS V14.01,2013-02-01 02:10:00,
2013-01-31 21:15:00,28.7,14.6,29.91,North,0,6.0,16.0,55,0.00,,CLR,0.04,0.00,VWS V14.01,2013-02-01 02:15:00,
2013-01-31 21:20:00,28.7,14.6,29.91,North,0,6.0,16.0,55,0.00,,CLR,0.04,0.00,VWS V14.01,2013-02-01 02:20:00,
2013-01-31 21:25:00,28.8,14.3,29.91,NW,325,6.0,16.0,54,0.00,,CLR,0.04,0.00,VWS V14.01,2013-02-01 02:25:00,
2013-01-31 21:30:00,28.8,14.3,29.91,NNW,344,3.0,19.0,54,0.00,,CLR,0.04,0.00,VWS V14.01,2013-02-01 02:30:00,
2013-01-31 21:35:00,28.8,14.3,29.91,NNW,336,6.0,6.0,54,0.00,,CLR,0.04,0.00,VWS V14.01,2013-02-01 02:35:00,
2013-01-31 21:40:00,28.8,14.3,29.91,North,350,6.0,10.0,54,0.00,,CLR,0.04,0.00,VWS V14.01,2013-02-01 02:40:00,
2013-01-31 21:45:00,29.1,13.2,29.91,NW,322,3.0,5.0,51,0.00,,CLR,0.04,0.00,VWS V14.01,2013-02-01 02:45:00,
2013-01-31 21:50:00,29.1,14.1,29.91,NNW,333,2.0,14.0,53,0.00,,CLR,0.04,0.00,VWS V14.01,2013-02-01 02:50:00,
2013-01-31 21:56:00,29.0,14.0,29.91,NW,318,7.0,14.0,53,0.00,,CLR,0.04,0.00,VWS V14.01,2013-02-01 02:56:00,
2013-01-31 22:01:00,29.1,14.1,29.91,NW,312,0.0,14.0,53,0.00,,CLR,0.04,0.00,VWS V14.01,2013-02-01 03:01:00,
2013-01-31 22:06:00,29.0,13.6,29.90,North,0,6.0,8.0,52,0.00,,CLR,0.04,0.00,VWS V14.01,2013-02-01 03:06:00,
2013-01-31 22:11:00,29.0,13.6,29.90,North,356,2.0,8.0,52,0.00,,CLR,0.04,0.00,VWS V14.01,2013-02-01 03:11:00,
2013-01-31 22:16:00,29.0,14.0,29.90,NNW,332,3.0,6.0,53,0.00,,CLR,0.04,0.00,VWS V14.01,2013-02-01 03:16:00,
2013-01-31 22:21:00,29.0,14.4,29.90,North,0,2.0,7.0,54,0.00,,CLR,0.04,0.00,VWS V14.01,2013-02-01 03:21:00,
2013-01-31 22:26:00,29.0,14.0,29.90,West,264,3.0,7.0,53,0.00,,CLR,0.04,0.00,VWS V14.01,2013-02-01 03:26:00,
2013-01-31 22:31:00,29.0,14.0,29.90,NW,318,0.0,7.0,53,0.00,,CLR,0.04,0.00,VWS V14.01,2013-02-01 03:31:00,
2013-01-31 22:36:00,28.8,14.3,29.90,NNW,336,4.0,5.0,54,0.00,,CLR,0.04,0.00,VWS V14.01,2013-02-01 03:36:00,
2013-01-31 22:42:00,28.8,14.3,29.90,North,0,2.0,7.0,54,0.00,,CLR,0.04,0.00,VWS V14.01,2013-02-01 03:42:00,
2013-01-31 22:47:00,28.8,14.3,29.90,NNW,335,3.0,5.0,54,0.00,,CLR,0.04,0.00,VWS V14.01,2013-02-01 03:47:00,
2013-01-31 22:52:00,29.0,14.4,29.90,NNW,342,5.0,11.0,54,0.00,,CLR,0.04,0.00,VWS V14.01,2013-02-01 03:52:00,
2013-01-31 22:54:00,28.5,16.8,29.87,West,271,5.0,6.0,61,0.00,,CLR,0.04,0.00,VWS V14.01,2013-02-01 03:54:00,
2013-01-31 22:55:00,28.5,16.8,29.87,WNW,299,6.0,6.0,61,0.00,,CLR,0.04,0.00,VWS V14.01,2013-02-01 03:55:00,
2013-01-31 22:56:00,28.5,16.8,29.87,NW,315,1.0,6.0,61,0.00,,CLR,0.04,0.00,VWS V14.01,2013-02-01 03:56:00,
2013-01-31 22:57:00,29.3,14.3,29.90,NNW,339,1.0,3.0,53,0.00,,CLR,0.04,0.00,VWS V14.01,2013-02-01 03:57:00,
2013-01-31 22:58:00,28.5,16.8,29.87,SW,233,0.0,6.0,61,0.00,,CLR,0.04,0.00,VWS V14.01,2013-02-01 03:58:00,
2013-01-31 22:59:00,28.5,16.8,29.87,NW,319,5.0,7.0,61,0.00,,CLR,0.04,0.00,VWS V14.01,2013-02-01 03:59:00,
2013-01-31 23:00:00,28.5,16.8,29.86,West,260,2.0,7.0,61,0.00,,CLR,0.04,0.00,VWS V14.01,2013-02-01 04:00:00,
2013-01-31 23:01:00,28.5,16.8,29.86,NW,325,5.0,6.0,61,0.00,,CLR,0.00,0.00,VWS V14.01,2013-02-01 04:01:00,
2013-01-31 23:02:00,29.1,14.5,29.90,NW,315,0.0,6.0,54,0.00,,CLR,0.04,0.00,VWS V14.01,2013-02-01 04:02:00,
2013-01-31 23:03:00,28.5,16.8,29.86,WNW,288,3.0,8.0,61,0.00,,CLR,0.00,0.00,VWS V14.01,2013-02-01 04:03:00,
2013-01-31 23:04:00,28.7,17.0,29.86,NNW,332,3.0,8.0,61,0.00,,CLR,0.00,0.00,VWS V14.01,2013-02-01 04:04:00,
2013-01-31 23:05:00,28.7,17.0,29.86,NW,306,6.0,8.0,61,0.00,,CLR,0.00,0.00,VWS V14.01,2013-02-01 04:05:00,
2013-01-31 23:06:00,28.8,17.1,29.86,NNW,333,8.0,8.0,61,0.00,,CLR,0.00,0.00,VWS V14.01,2013-02-01 04:06:00,
2013-01-31 23:07:00,29.1,14.5,29.90,NNW,343,5.0,10.0,54,0.00,,CLR,0.04,0.00,VWS V14.01,2013-02-01 04:07:00,
2013-01-31 23:08:00,28.8,17.1,29.86,NNW,335,5.0,9.0,61,0.00,,CLR,0.00,0.00,VWS V14.01,2013-02-01 04:08:00,
2013-01-31 23:09:00,28.8,17.1,29.86,NW,325,10.0,10.0,61,0.00,,CLR,0.00,0.00,VWS V14.01,2013-02-01 04:09:00,
2013-01-31 23:10:00,28.8,16.7,29.86,NNW,332,3.0,12.0,60,0.00,,CLR,0.00,0.00,VWS V14.01,2013-02-01 04:10:00,
2013-01-31 23:11:00,29.0,16.5,29.86,NW,326,6.0,7.0,59,0.00,,CLR,0.00,0.00,VWS V14.01,2013-02-01 04:11:00,
2013-01-31 23:12:00,29.0,14.4,29.90,North,0,0.0,10.0,54,0.00,,CLR,0.04,0.00,VWS V14.01,2013-02-01 04:12:00,
2013-01-31 23:13:00,29.0,16.5,29.86,North,0,1.0,9.0,59,0.00,,CLR,0.00,0.00,VWS V14.01,2013-02-01 04:13:00,
2013-01-31 23:14:00,29.0,16.5,29.86,NNW,337,2.0,9.0,59,0.00,,CLR,0.00,0.00,VWS V14.01,2013-02-01 04:14:00,
2013-01-31 23:15:00,29.0,16.9,29.86,NW,319,0.0,9.0,60,0.00,,CLR,0.00,0.00,VWS V14.01,2013-02-01 04:15:00,
2013-01-31 23:16:00,29.0,16.9,29.86,WNW,298,0.0,9.0,60,0.00,,CLR,0.00,0.00,VWS V14.01,2013-02-01 04:16:00,
2013-01-31 23:17:00,28.8,15.1,29.90,North,356,2.0,8.0,56,0.00,,CLR,0.04,0.00,VWS V14.01,2013-02-01 04:17:00,
2013-01-31 23:21:00,29.0,17.2,29.86,NW,312,1.0,3.0,61,0.00,,CLR,0.00,0.00,VWS V14.01,2013-02-01 04:21:00,
2013-01-31 23:22:00,29.0,14.4,29.89,NNW,336,5.0,11.0,54,0.00,,CLR,0.04,0.00,VWS V14.01,2013-02-01 04:22:00,
2013-01-31 23:23:00,28.8,17.1,29.86,West,271,5.0,7.0,61,0.00,,CLR,0.00,0.00,VWS V14.01,2013-02-01 04:23:00,
2013-01-31 23:27:00,29.0,14.4,29.89,North,359,0.0,5.0,54,0.00,,CLR,0.04,0.00,VWS V14.01,2013-02-01 04:27:00,
2013-01-31 23:32:00,28.8,15.5,29.89,North,0,1.0,7.0,57,0.00,,CLR,0.04,0.00,VWS V14.01,2013-02-01 04:32:00,
2013-01-31 23:38:00,28.7,15.4,29.88,West,265,2.0,5.0,57,0.00,,CLR,0.04,0.00,VWS V14.01,2013-02-01 04:38:00,
2013-01-31 23:43:00,28.7,15.8,29.88,NW,322,2.0,7.0,58,0.00,,CLR,0.04,0.00,VWS V14.01,2013-02-01 04:43:00,
2013-01-31 23:48:00,28.7,16.2,29.88,NW,313,0.0,4.0,59,0.00,,CLR,0.04,0.00,VWS V14.01,2013-02-01 04:48:00,
2013-01-31 23:53:00,28.5,16.4,29.87,North,0,1.0,10.0,60,0.00,,CLR,0.04,0.00,VWS V14.01,2013-02-01 04:53:00,
2013-01-31 23:58:00,28.5,16.8,29.87,NW,326,3.0,6.0,61,0.00,,CLR,0.04,0.00,VWS V14.01,2013-02-01 04:58:00,